Location: Piotrkow Trybunalski
(51.4000°N, 19.6830°E)
Time: 00:46:50
(UTC+02:00)

STRAND 1 - Pass Details

Date: 02 April 2023
Orbit: 767 x 779 km, 98.4° (Epoch: 06 June)

Event Time Altitude Azimuth Distance (km) Brightness Sun altitude
Rises 04:36:18 0° 110° (ESE) 3,249 ? -15.4°
Reaches altitude 10° 04:39:27 10° 89° (E) 2,323 ? -15.0°
Maximum altitude 04:42:29 16° 53° (NE) 1,932 ? -14.6°
Drops below altitude 10° 04:45:31 10° 16° (NNE) 2,327 ? -14.2°
Sets 04:48:39 0° 356° (N) 3,257 ? -13.7°
